Location: *
(46.3500°N, 10.9000°E)
Time: 03:34:05
(UTC+00:00)

DMSP B5D2-2 - Pass Details

Date: 09 April 2020
Orbit: 791 x 805 km, 98.3° (Epoch: 26 May)

Event Time Altitude Azimuth Distance (km) Brightness Sun altitude
Rises 18:58:52 0° 19° (NNE) 3,304 7.4 -11.0°
Reaches altitude 10° 19:01:19 10° 26° (NNE) 2,371 6.5 -11.4°
Maximum altitude 19:06:19 44° 98° (E) 1,087 4.4 -12.2°
Drops below altitude 10° 19:11:18 10° 171° (S) 2,363 6.2 -13.0°
Sets 19:13:43 0° 177° (S) 3,290 7.0 -13.3°
